Truckee-Tahoe, CA

5:02 AM PST on December 15, 2017 (GMT -0800)
Truckee-Tahoe

Weather History for KTRK - December, 2012

Change the Weather History Date:

Saturday, December 29, 2012

  Actual Average Record
Temperature  
Mean Temperature 22 °F -  
Max Temperature 26 °F 38 °F 57 °F (2000)
Min Temperature 17 °F 14 °F -4 °F (1974)
Degree Days  
Heating Degree Days 44    
Moisture  
Dew Point 19 °F    
Average Humidity 93    
Maximum Humidity 100    
Minimum Humidity 74    
Precipitation  
Precipitation 0.02 in - - ()
Snow  
Snow 0.00 in - - ()
Snow Depth 28.00 in    
Sea Level Pressure  
Sea Level Pressure 29.98 in    
Wind  
Wind Speed 1 mph (East)    
Max Wind Speed 6 mph    
Max Gust Speed -    
Visibility 6 miles    
Events Snow    
Averages and records for this station are not official NWS values.
T = Trace of Precipitation, MM = Missing Value Source: NWS Daily Summary

Daily Weather History Graph

Daily Weather History Graph

Search for Another Location

Airport or City:

Trip Planner

Search our weather history database for the weather conditions in past years. The results will help you decide how hot, cold, wet, or windy it might be!

Date:

Astronomy

Dec. 29, 2012 Rise Set
Actual Time 7:19 AM PST 4:46 PM PST
Civil Twilight 6:49 AM PST 5:16 PM PST
Nautical Twilight 6:16 AM PST 5:49 PM PST
Astronomical Twilight 5:43 AM PST 6:22 PM PST
Moon 6:23 PM PST (12/29) 7:57 AM PST (12/29)
Length of Visible Light 10h 26m
Length of Day
9h 26m
Full, 98% of the Moon is Illuminated
Dec 29
Full
Jan 4
Last Quarter
Jan 11
New
Jan 18
First Quarter
Jan 26
Full

Hourly Weather History & Observations

Time (PST) Temp. Windchill Dew Point Humidity Pressure Visibility Wind Dir Wind Speed Gust Speed Precip Events Conditions
12:15 AM 19.4 °F - 17.6 °F 93% 30.01 in 7.0 mi Calm Calm - N/A   Overcast
12:35 AM 19.4 °F - 17.6 °F 93% 30.00 in 6.0 mi Calm Calm - N/A   Overcast
12:55 AM 19.4 °F - 17.6 °F 93% 30.00 in 8.0 mi Calm Calm - N/A   Overcast
1:15 AM 17.6 °F - 15.8 °F 93% 30.00 in 7.0 mi Calm Calm - N/A   Overcast
1:35 AM 19.4 °F - 17.6 °F 93% 30.00 in 9.0 mi Calm Calm - N/A Snow Light Snow
1:55 AM 17.6 °F - 17.6 °F 100% 30.00 in 8.0 mi Calm Calm - N/A   Overcast
2:15 AM 17.6 °F - 15.8 °F 93% 30.00 in 5.0 mi Calm Calm - N/A   Overcast
2:35 AM 17.6 °F - 15.8 °F 93% 30.01 in 5.0 mi Calm Calm - N/A   Overcast
2:55 AM 17.6 °F - 17.6 °F 100% 30.00 in 5.0 mi Calm Calm - N/A   Overcast
3:15 AM 17.6 °F - 15.8 °F 93% 30.00 in 5.0 mi Calm Calm - N/A   Overcast
3:35 AM 17.6 °F - 15.8 °F 93% 29.99 in 6.0 mi Calm Calm - N/A   Overcast
3:55 AM 17.6 °F - 15.8 °F 93% 29.99 in 7.0 mi Calm Calm - N/A   Overcast
4:15 AM 17.6 °F - 17.6 °F 100% 29.99 in 8.0 mi Calm Calm - N/A   Overcast
4:35 AM 17.6 °F - 15.8 °F 93% 29.99 in 5.0 mi Calm Calm - N/A   Overcast
4:55 AM 17.6 °F - 15.8 °F 93% 29.99 in 5.0 mi Calm Calm - N/A   Overcast
5:15 AM 17.6 °F - 15.8 °F 93% 29.99 in 6.0 mi Calm Calm - N/A   Overcast
5:35 AM 17.6 °F - 15.8 °F 93% 29.99 in 6.0 mi Calm Calm - N/A   Overcast
6:55 AM 17.6 °F - 15.8 °F 93% 30.00 in 8.0 mi Calm Calm - N/A   Overcast
7:50 AM 17.6 °F - 15.8 °F 93% 30.00 in 9.0 mi Calm Calm - N/A   Overcast
8:50 AM 19.4 °F - 17.6 °F 93% 30.01 in 3.0 mi Calm Calm - N/A Snow Light Snow
9:50 AM 17.6 °F - 15.8 °F 93% 30.02 in 5.0 mi Calm Calm - N/A Snow Light Snow
10:50 AM 19.4 °F - 17.6 °F 93% 30.01 in 8.0 mi Calm Calm - N/A   Mostly Cloudy
11:45 AM 23.0 °F - 19.4 °F 86% 29.98 in 10.0 mi Calm Calm - N/A   Mostly Cloudy
12:45 PM 24.8 °F 20.5 °F 19.4 °F 80% 29.96 in 10.0 mi ESE 3.5 mph - N/A   Mostly Cloudy
1:50 PM 24.8 °F - 17.6 °F 74% 29.94 in 10.0 mi Calm Calm - N/A   Mostly Cloudy
2:45 PM 26.6 °F - 19.4 °F 74% 29.94 in 5.0 mi Calm Calm - N/A   Overcast
3:55 PM 24.8 °F - 19.4 °F 80% 29.94 in 6.0 mi Calm Calm - N/A   Overcast
4:50 PM 24.8 °F - 19.4 °F 80% 29.94 in 6.0 mi Calm Calm - N/A   Overcast
4:55 PM 24.8 °F - 23.0 °F 93% 29.94 in 8.0 mi Calm Calm - N/A Snow Light Snow
5:15 PM 24.8 °F - 23.0 °F 93% 29.95 in 10.0 mi Calm Calm - N/A   Overcast
5:35 PM 24.8 °F 20.5 °F 23.0 °F 93% 29.96 in 10.0 mi North 3.5 mph - N/A   Overcast
5:55 PM 24.8 °F 20.5 °F 23.0 °F 93% 29.96 in 4.0 mi NNE 3.5 mph - N/A Snow Light Snow
6:15 PM 24.8 °F 20.5 °F 23.0 °F 93% 29.96 in 0.5 mi East 3.5 mph - N/A Snow Snow
6:35 PM 23.0 °F 18.4 °F 23.0 °F 100% 29.95 in 1.0 mi SE 3.5 mph - 0.01 in Snow Light Snow
6:55 PM 23.0 °F - 23.0 °F 100% 29.95 in 4.0 mi Calm Calm - 0.02 in Snow Light Snow
7:15 PM 23.0 °F - 23.0 °F 100% 29.95 in 4.0 mi Calm Calm - N/A   Overcast
7:35 PM 23.0 °F 17.0 °F 21.2 °F 93% 29.95 in 4.0 mi NW 4.6 mph - N/A   Overcast
7:55 PM 19.4 °F 12.8 °F 19.4 °F 100% 29.97 in 2.5 mi NNE 4.6 mph - N/A   Mostly Cloudy
8:15 PM 21.2 °F 16.4 °F 19.4 °F 93% 29.97 in 5.0 mi NE 3.5 mph - N/A   Overcast
8:35 PM 21.2 °F 14.9 °F 19.4 °F 93% 29.97 in 6.0 mi SSE 4.6 mph - N/A   Overcast
8:55 PM 21.2 °F 13.6 °F 19.4 °F 93% 29.97 in 4.0 mi SSE 5.8 mph - N/A Snow Light Snow
9:15 PM 23.0 °F 18.4 °F 21.2 °F 93% 29.97 in 6.0 mi ESE 3.5 mph - N/A   Overcast
9:35 PM 19.4 °F 14.3 °F 19.4 °F 100% 29.96 in 6.0 mi North 3.5 mph - N/A   Overcast
9:55 PM 19.4 °F 11.5 °F 19.4 °F 100% 29.96 in 5.0 mi WNW 5.8 mph - N/A   Overcast
10:15 PM 19.4 °F 12.8 °F 19.4 °F 100% 29.96 in 8.0 mi North 4.6 mph - N/A   Overcast
10:35 PM 19.4 °F 12.8 °F 19.4 °F 100% 29.97 in 5.0 mi East 4.6 mph - N/A   Overcast
10:55 PM 21.2 °F 14.9 °F 19.4 °F 93% 29.97 in 5.0 mi SE 4.6 mph - N/A   Overcast
11:15 PM 21.2 °F 16.4 °F 19.4 °F 93% 29.97 in 8.0 mi SSW 3.5 mph - N/A   Overcast
11:35 PM 21.2 °F 13.6 °F 19.4 °F 93% 29.97 in 6.0 mi WSW 5.8 mph - N/A   Mostly Cloudy
11:55 PM 21.2 °F 13.6 °F 19.4 °F 93% 29.96 in 8.0 mi South 5.8 mph - N/A   Overcast